Location: New Canada
(47.1017°N, 68.5042°W)
Time: 08:05:17
(UTC+00:00)

EO-79 - Pass Details

Date: 02 April 2023
Orbit: 578 x 593 km, 98.0° (Epoch: 03 June)

Event Time Altitude Azimuth Distance (km) Brightness Sun altitude
Rises 07:34:04 0° 5° (N) 2,831 ? -25.2°
Reaches altitude 10° 07:36:23 10° 356° (N) 1,922 ? -24.8°
Enters shadow 07:38:52 27° 327° (NNW) 1,141 ? -24.5°
